sat.trackr.live / text

‹ back to catalog

STARLINK-2454

NORAD 48116 · 2021-027AA

PAYLOAD ACTIVE UNKNOWN

§ Identity

Operator
Country
US
Launch date
2021-04-07
Launch site
AFETR
Launch vehicle
Mass (kg)
RCS (m²)

Purposes: comms

External: N2YO · Heavens-Above · Gunter

§ Orbital elements

Epoch: 2026-09-19T20:16:48.763776Z

Period
94.01 min
Inclination
53.1607°
Eccentricity
0.0001203
Mean motion
15.31701429 rev/d
Perigee alt
469.9 km
Apogee alt
471.6 km
Semi-major
6,848.9 km
B*
1.4955e-5
RAAN
342.2865°
Arg perigee
77.9465°
Mean anomaly
282.1671°
Rev number
30,225

§ Raw data

STARLINK-24541 48116U 21027AA  26262.84500884  .00000099  00000+0  14955-4 0  99922 48116  53.1607 342.2865 0001203  77.9465 282.1671 15.31701429302250

JSON: /api/v1/satellites/48116 · /tle

For live sub-satellite position, see the globe view (requires WebGL).

§ Visibility from observer

Set your observer location to see the next 7 days of passes ≥ 10°. The values pass through the URL so the page stays shareable.

No JS? Fill the form by hand. The geolocation button needs JavaScript.